| time (UTC) | temp C | wind direction | speed KPH | gust KPH | rain 1hr cm | rain 24hr cm | rain mn cm | humidity % | barometer mb |
| 20260508125544 | 10 | 24 | 6.4 | 12.9 | 0.00 | 0.00 | 0.00 | 57 | 1019.4 |
| 20260508125041 | 10 | 62 | 1.6 | 12.9 | 0.00 | 0.00 | 0.00 | 61 | 1019.5 |
| 20260508124541 | 9 | 360 | 3.2 | 12.9 | 0.00 | 0.00 | 0.00 | 61 | 1019.5 |
| 20260508124039 | 9 | 351 | 3.2 | 12.9 | 0.00 | 0.00 | 0.00 | 61 | 1019.4 |
| 20260508123540 | 8 | 355 | 4.8 | 14.5 | 0.00 | 0.00 | 0.00 | 63 | 1019.3 |
| 20260508123039 | 8 | 318 | 3.2 | 12.9 | 0.00 | 0.00 | 0.00 | 62 | 1019.2 |
| 20260508122537 | 8 | 296 | 4.8 | 12.9 | 0.00 | 0.00 | 0.00 | 63 | 1019.2 |
| 20260508122038 | 8 | 327 | 1.6 | 9.7 | 0.00 | 0.00 | 0.00 | 66 | 1019.2 |
| 20260508121535 | 8 | 11 | 4.8 | 14.5 | 0.00 | 0.00 | 0.00 | 64 | 1019.1 |
| 20260508121034 | 8 | 360 | 4.8 | 14.5 | 0.00 | 0.00 | 0.00 | 66 | 1019.0 |
| 20260508120535 | 8 | 360 | 3.2 | 8.0 | 0.00 | 0.00 | 0.00 | 67 | 1018.8 |
| 20260508120038 | 7 | 347 | 4.8 | 12.9 | 0.00 | 0.00 | 0.00 | 67 | 1018.8 |
| 20260508115531 | 7 | 341 | 4.8 | 9.7 | 0.00 | 0.00 | 0.00 | 68 | 1018.7 |
| 20260508115031 | 7 | 350 | 6.4 | 9.7 | 0.00 | 0.00 | 0.00 | 69 | 1018.5 |
| 20260508114529 | 7 | 5 | 3.2 | 12.9 | 0.00 | 0.00 | 0.00 | 70 | 1018.5 |
| 20260508114031 | 7 | 344 | 4.8 | 6.4 | 0.00 | 0.00 | 0.00 | 69 | 1018.5 |
| 20260508113531 | 7 | 350 | 3.2 | 6.4 | 0.00 | 0.00 | 0.00 | 70 | 1018.4 |
| 20260508113029 | 7 | 350 | 3.2 | 4.8 | 0.00 | 0.00 | 0.00 | 71 | 1018.4 |
| 20260508112527 | 6 | 350 | 0.0 | 3.2 | 0.00 | 0.00 | 0.00 | 71 | 1018.3 |
| 20260508112026 | 6 | 350 | 0.0 | 6.4 | 0.00 | 0.00 | 0.00 | 72 | 1018.2 |
| 20260508111528 | 6 | 350 | 3.2 | 6.4 | 0.00 | 0.00 | 0.00 | 72 | 1018.1 |
| 20260508111026 | 5 | 351 | 1.6 | 6.4 | 0.00 | 0.00 | 0.00 | 73 | 1018.0 |
| 20260508110531 | 5 | 351 | 1.6 | 8.0 | 0.00 | 0.00 | 0.00 | 74 | 1017.9 |
| 20260508110025 | 5 | 355 | 3.2 | 8.0 | 0.00 | 0.00 | 0.00 | 75 | 1017.9 |
| 20260508105525 | 4 | 355 | 3.2 | 6.4 | 0.00 | 0.00 | 0.00 | 77 | 1017.9 |
| 20260508105023 | 4 | 355 | 1.6 | 4.8 | 0.00 | 0.00 | 0.00 | 78 | 1017.8 |
| 20260508104522 | 4 | 355 | 1.6 | 6.4 | 0.00 | 0.00 | 0.00 | 78 | 1017.8 |
| 20260508104022 | 4 | 355 | 1.6 | 6.4 | 0.00 | 0.00 | 0.00 | 78 | 1017.6 |
| 20260508103521 | 4 | 355 | 3.2 | 8.0 | 0.00 | 0.00 | 0.00 | 79 | 1017.6 |
| 20260508103029 | 4 | 355 | 4.8 | 8.0 | 0.00 | 0.00 | 0.00 | 79 | 1017.5 |
| 20260508102519 | 4 | 355 | 3.2 | 8.0 | 0.00 | 0.00 | 0.00 | 78 | 1017.5 |
| 20260508102019 | 4 | 336 | 4.8 | 8.0 | 0.00 | 0.00 | 0.00 | 78 | 1017.4 |
| 20260508101530 | 4 | 332 | 3.2 | 6.4 | 0.00 | 0.00 | 0.00 | 77 | 1017.4 |
| 20260508101020 | 5 | 300 | 3.2 | 6.4 | 0.00 | 0.00 | 0.00 | 75 | 1017.4 |
| 20260508100514 | 5 | 298 | 1.6 | 6.4 | 0.00 | 0.00 | 0.00 | 74 | 1017.3 |
| 20260508100015 | 5 | 297 | 3.2 | 8.0 | 0.00 | 0.00 | 0.00 | 74 | 1017.0 |
| 20260508095515 | 5 | 302 | 3.2 | 8.0 | 0.00 | 0.00 | 0.00 | 74 | 1017.0 |
| 20260508095015 | 5 | 310 | 4.8 | 8.0 | 0.00 | 0.00 | 0.00 | 74 | 1017.0 |
| 20260508094512 | 5 | 323 | 3.2 | 12.9 | 0.00 | 0.00 | 0.00 | 75 | 1016.8 |
| 20260508094011 | 5 | 312 | 3.2 | 12.9 | 0.00 | 0.00 | 0.00 | 75 | 1016.9 |
| 20260508093514 | 5 | 325 | 4.8 | 12.9 | 0.00 | 0.00 | 0.00 | 75 | 1016.8 |
| 20260508093011 | 5 | 315 | 4.8 | 9.7 | 0.00 | 0.00 | 0.00 | 75 | 1016.9 |
| 20260508092509 | 5 | 317 | 3.2 | 9.7 | 0.00 | 0.00 | 0.00 | 75 | 1016.9 |
| 20260508092008 | 5 | 350 | 3.2 | 9.7 | 0.00 | 0.00 | 0.00 | 75 | 1016.7 |
| 20260508091507 | 5 | 334 | 1.6 | 12.9 | 0.00 | 0.00 | 0.00 | 75 | 1016.6 |
| 20260508091007 | 5 | 334 | 6.4 | 16.1 | 0.00 | 0.00 | 0.00 | 75 | 1016.7 |
| 20260508090506 | 6 | 360 | 6.4 | 16.1 | 0.00 | 0.00 | 0.00 | 75 | 1016.6 |
| 20260508090007 | 6 | 350 | 4.8 | 12.9 | 0.00 | 0.00 | 0.00 | 75 | 1016.6 |
| 20260508085504 | 6 | 336 | 6.4 | 17.7 | 0.00 | 0.00 | 0.00 | 74 | 1016.5 |
| 20260508085002 | 6 | 341 | 8.0 | 19.3 | 0.00 | 0.00 | 0.00 | 74 | 1016.5 |
| 20260508084502 | 6 | 330 | 8.0 | 19.3 | 0.00 | 0.00 | 0.00 | 74 | 1016.4 |
| 20260508084001 | 6 | 333 | 9.7 | 20.9 | 0.00 | 0.00 | 0.00 | 74 | 1016.4 |
| 20260508083603 | 6 | 313 | 9.7 | 22.5 | 0.00 | 0.00 | 0.00 | 73 | 1016.2 |
| 20260508083125 | 6 | 317 | 9.7 | 24.1 | 0.00 | 0.00 | 0.00 | 73 | 1016.2 |
| 20260508082557 | 6 | 317 | 12.9 | 24.1 | 0.00 | 0.00 | 0.00 | 72 | 1016.2 |
| 20260508082057 | 7 | 338 | 14.5 | 30.6 | 0.00 | 0.00 | 0.00 | 72 | 1016.0 |
| 20260508081556 | 7 | 306 | 14.5 | 30.6 | 0.00 | 0.00 | 0.00 | 71 | 1015.8 |
| 20260508081054 | 7 | 317 | 16.1 | 29.0 | 0.00 | 0.00 | 0.00 | 70 | 1015.7 |
| 20260508080553 | 7 | 333 | 14.5 | 32.2 | 0.00 | 0.00 | 0.00 | 70 | 1015.6 |
| 20260508080058 | 7 | 329 | 19.3 | 32.2 | 0.00 | 0.00 | 0.00 | 69 | 1015.5 |
| 20260508075553 | 7 | 330 | 17.7 | 30.6 | 0.00 | 0.03 | 0.00 | 69 | 1015.3 |
| 20260508075050 | 7 | 327 | 19.3 | 33.8 | 0.00 | 0.03 | 0.00 | 69 | 1015.2 |
| 20260508074552 | 7 | 360 | 19.3 | 33.8 | 0.00 | 0.03 | 0.00 | 69 | 1015.2 |
| 20260508074053 | 7 | 9 | 16.1 | 25.7 | 0.00 | 0.03 | 0.00 | 70 | 1015.3 |
| 20260508073548 | 7 | 336 | 14.5 | 24.1 | 0.00 | 0.03 | 0.00 | 70 | 1015.3 |
| 20260508073048 | 7 | 355 | 6.4 | 20.9 | 0.00 | 0.03 | 0.00 | 71 | 1015.2 |
| 20260508072546 | 7 | 340 | 8.0 | 19.3 | 0.00 | 0.03 | 0.00 | 71 | 1015.5 |
| 20260508072051 | 7 | 336 | 8.0 | 29.0 | 0.00 | 0.03 | 0.00 | 72 | 1015.6 |
| 20260508071546 | 7 | 290 | 11.3 | 29.0 | 0.00 | 0.03 | 0.00 | 72 | 1015.5 |
| 20260508071045 | 7 | 305 | 11.3 | 24.1 | 0.00 | 0.03 | 0.00 | 73 | 1015.7 |
| 20260508070544 | 7 | 337 | 11.3 | 30.6 | 0.00 | 0.03 | 0.00 | 72 | 1015.5 |
| 20260508070044 | 7 | 18 | 12.9 | 30.6 | 0.00 | 0.03 | 0.00 | 73 | 1015.5 |
| 20260508065543 | 7 | 318 | 12.9 | 22.5 | 0.00 | 0.05 | 0.00 | 74 | 1015.4 |
| 20260508065041 | 7 | 327 | 11.3 | 22.5 | 0.00 | 0.05 | 0.00 | 74 | 1015.4 |
| 20260508064550 | 7 | 338 | 11.3 | 24.1 | 0.00 | 0.05 | 0.00 | 75 | 1015.5 |
| 20260508064040 | 7 | 336 | 11.3 | 25.7 | 0.00 | 0.05 | 0.00 | 75 | 1015.6 |
| 20260508063541 | 7 | 304 | 14.5 | 25.7 | 0.00 | 0.05 | 0.00 | 75 | 1015.5 |
| 20260508063039 | 7 | 301 | 12.9 | 22.5 | 0.00 | 0.05 | 0.00 | 75 | 1015.4 |
| 20260508062539 | 7 | 300 | 9.7 | 24.1 | 0.00 | 0.05 | 0.00 | 76 | 1015.4 |
| 20260508062038 | 7 | 324 | 14.5 | 24.1 | 0.00 | 0.05 | 0.00 | 76 | 1015.4 |
| 20260508061539 | 7 | 327 | 6.4 | 22.5 | 0.00 | 0.05 | 0.00 | 76 | 1015.4 |
| 20260508055534 | 7 | 344 | 9.7 | 33.8 | 0.00 | 0.05 | 0.00 | 78 | 1015.5 |
| 20260508055032 | 7 | 295 | 12.9 | 22.5 | 0.00 | 0.05 | 0.00 | 78 | 1015.6 |
| 20260508054534 | 7 | 330 | 11.3 | 20.9 | 0.00 | 0.05 | 0.00 | 79 | 1015.6 |
| 20260508054033 | 7 | 321 | 8.0 | 16.1 | 0.00 | 0.05 | 0.00 | 79 | 1015.7 |
| 20260508053530 | 7 | 338 | 6.4 | 17.7 | 0.00 | 0.05 | 0.00 | 78 | 1015.7 |
| 20260508053033 | 8 | 339 | 3.2 | 25.7 | 0.00 | 0.05 | 0.00 | 78 | 1015.5 |
| 20260508052529 | 8 | 291 | 11.3 | 20.9 | 0.00 | 0.05 | 0.00 | 79 | 1015.3 |
| 20260508052029 | 8 | 324 | 9.7 | 30.6 | 0.00 | 0.05 | 0.00 | 79 | 1015.3 |
| 20260508051527 | 8 | 317 | 14.5 | 27.4 | 0.00 | 0.05 | 0.00 | 80 | 1015.2 |
| 20260508051025 | 8 | 310 | 8.0 | 29.0 | 0.00 | 0.05 | 0.00 | 80 | 1015.2 |
| 20260508050525 | 8 | 284 | 14.5 | 29.0 | 0.00 | 0.05 | 0.00 | 81 | 1015.0 |
| 20260508050124 | 8 | 345 | 16.1 | 32.2 | 0.00 | 0.05 | 0.00 | 81 | 1014.9 |
| 20260508045522 | 8 | 317 | 14.5 | 32.2 | 0.00 | 0.05 | 0.00 | 81 | 1014.9 |
| 20260508045021 | 8 | 343 | 19.3 | 30.6 | 0.00 | 0.05 | 0.00 | 80 | 1014.9 |
| 20260508044521 | 8 | 333 | 16.1 | 27.4 | 0.00 | 0.05 | 0.00 | 80 | 1015.0 |
| 20260508044021 | 8 | 337 | 12.9 | 27.4 | 0.00 | 0.05 | 0.00 | 80 | 1014.9 |
| 20260508043519 | 8 | 338 | 17.7 | 29.0 | 0.00 | 0.05 | 0.00 | 80 | 1014.9 |
| 20260508043018 | 8 | 333 | 17.7 | 32.2 | 0.00 | 0.05 | 0.00 | 79 | 1014.8 |
| 20260508042517 | 8 | 321 | 16.1 | 33.8 | 0.00 | 0.05 | 0.00 | 79 | 1014.8 |
| 20260508042016 | 8 | 338 | 16.1 | 33.8 | 0.00 | 0.05 | 0.00 | 79 | 1014.7 |
| 20260508041515 | 8 | 294 | 16.1 | 27.4 | 0.00 | 0.05 | 0.00 | 79 | 1014.7 |
| 20260508041014 | 8 | 330 | 14.5 | 29.0 | 0.00 | 0.05 | 0.00 | 80 | 1014.7 |
| 20260508040513 | 8 | 333 | 14.5 | 25.7 | 0.00 | 0.05 | 0.00 | 80 | 1014.7 |
| 20260508040018 | 8 | 328 | 12.9 | 25.7 | 0.00 | 0.05 | 0.05 | 80 | 1014.7 |
| 20260508035510 | 8 | 307 | 14.5 | 25.7 | 0.00 | 0.05 | 0.05 | 80 | 1014.8 |
| 20260508035011 | 8 | 312 | 16.1 | 24.1 | 0.00 | 0.05 | 0.05 | 80 | 1014.8 |
| 20260508034508 | 8 | 342 | 14.5 | 27.4 | 0.00 | 0.05 | 0.05 | 80 | 1014.7 |
| 20260508034010 | 8 | 289 | 14.5 | 27.4 | 0.00 | 0.05 | 0.05 | 79 | 1014.7 |
| 20260508033507 | 8 | 333 | 14.5 | 29.0 | 0.00 | 0.05 | 0.05 | 79 | 1014.7 |
| 20260508033005 | 8 | 323 | 14.5 | 29.0 | 0.00 | 0.05 | 0.05 | 79 | 1014.6 |
| 20260508032505 | 8 | 335 | 11.3 | 25.7 | 0.00 | 0.05 | 0.05 | 78 | 1014.6 |
| 20260508032004 | 8 | 360 | 14.5 | 24.1 | 0.00 | 0.05 | 0.05 | 78 | 1014.6 |
| 20260508031504 | 8 | 337 | 12.9 | 24.1 | 0.00 | 0.05 | 0.05 | 78 | 1014.5 |
| 20260508031003 | 8 | 318 | 11.3 | 22.5 | 0.00 | 0.05 | 0.05 | 78 | 1014.5 |
| 20260508030503 | 8 | 355 | 14.5 | 24.1 | 0.00 | 0.05 | 0.05 | 78 | 1014.5 |
| 20260508030002 | 9 | 341 | 11.3 | 24.1 | 0.00 | 0.10 | 0.05 | 78 | 1014.3 |
| 20260508025602 | 9 | 308 | 16.1 | 24.1 | 0.00 | 0.10 | 0.05 | 78 | 1014.4 |
| 20260508025100 | 9 | 334 | 14.5 | 24.1 | 0.00 | 0.10 | 0.05 | 77 | 1014.3 |
| 20260508024559 | 9 | 327 | 14.5 | 27.4 | 0.00 | 0.10 | 0.05 | 77 | 1014.3 |
| 20260508024058 | 9 | 336 | 16.1 | 27.4 | 0.00 | 0.10 | 0.05 | 77 | 1014.3 |
| 20260508023557 | 9 | 320 | 14.5 | 25.7 | 0.00 | 0.10 | 0.05 | 76 | 1014.2 |
| 20260508023056 | 9 | 306 | 11.3 | 27.4 | 0.00 | 0.10 | 0.05 | 76 | 1014.1 |
| 20260508022555 | 9 | 350 | 12.9 | 27.4 | 0.00 | 0.10 | 0.05 | 76 | 1014.0 |
| 20260508022054 | 9 | 326 | 11.3 | 25.7 | 0.00 | 0.10 | 0.05 | 76 | 1013.9 |
| 20260508021554 | 9 | 315 | 12.9 | 24.1 | 0.00 | 0.10 | 0.05 | 75 | 1013.9 |
| 20260508021051 | 9 | 5 | 14.5 | 25.7 | 0.00 | 0.10 | 0.05 | 75 | 1013.7 |
| 20260508020552 | 9 | 288 | 12.9 | 25.7 | 0.00 | 0.10 | 0.05 | 75 | 1013.6 |
| 20260508020052 | 9 | 327 | 16.1 | 27.4 | 0.00 | 0.10 | 0.05 | 75 | 1013.5 |
| 20260508015549 | 9 | 332 | 16.1 | 27.4 | 0.00 | 0.10 | 0.05 | 75 | 1013.4 |
| 20260508015048 | 9 | 331 | 16.1 | 27.4 | 0.00 | 0.10 | 0.05 | 75 | 1013.4 |
| 20260508014553 | 9 | 14 | 12.9 | 27.4 | 0.00 | 0.10 | 0.05 | 76 | 1013.2 |
| 20260508014050 | 9 | 288 | 14.5 | 32.2 | 0.00 | 0.10 | 0.05 | 76 | 1013.2 |
| 20260508013546 | 9 | 343 | 14.5 | 32.2 | 0.00 | 0.10 | 0.05 | 77 | 1013.0 |
| 20260508013048 | 9 | 347 | 16.1 | 29.0 | 0.00 | 0.10 | 0.05 | 77 | 1012.9 |
| 20260508012547 | 9 | 38 | 8.0 | 22.5 | 0.00 | 0.10 | 0.05 | 78 | 1012.8 |
| 20260508012046 | 9 | 306 | 11.3 | 22.5 | 0.00 | 0.10 | 0.05 | 78 | 1012.7 |
| 20260508011547 | 9 | 320 | 12.9 | 27.4 | 0.00 | 0.10 | 0.05 | 77 | 1012.5 |
| 20260508011045 | 9 | 346 | 12.9 | 27.4 | 0.00 | 0.10 | 0.05 | 77 | 1012.4 |
| 20260508010547 | 9 | 286 | 12.9 | 27.4 | 0.00 | 0.10 | 0.05 | 77 | 1012.1 |
| 20260508010044 | 9 | 282 | 14.5 | 27.4 | 0.00 | 0.10 | 0.05 | 76 | 1012.2 |
| 20260508005543 | 10 | 265 | 11.3 | 27.4 | 0.00 | 0.10 | 0.05 | 75 | 1012.1 |
| 20260508005040 | 10 | 328 | 9.7 | 22.5 | 0.00 | 0.10 | 0.05 | 75 | 1012.1 |
| 20260508004539 | 10 | 295 | 11.3 | 25.7 | 0.00 | 0.10 | 0.05 | 74 | 1012.1 |
| 20260508004040 | 10 | 304 | 16.1 | 25.7 | 0.00 | 0.10 | 0.05 | 74 | 1012.1 |
| 20260508003539 | 10 | 329 | 6.4 | 24.1 | 0.00 | 0.10 | 0.05 | 74 | 1012.2 |
| 20260508003055 | 10 | 323 | 8.0 | 19.3 | 0.00 | 0.10 | 0.05 | 75 | 1012.2 |
| 20260508002538 | 10 | 274 | 9.7 | 19.3 | 0.00 | 0.10 | 0.05 | 74 | 1012.2 |
| 20260508002036 | 10 | 291 | 11.3 | 20.9 | 0.00 | 0.10 | 0.05 | 74 | 1012.2 |
| 20260508001536 | 10 | 318 | 12.9 | 22.5 | 0.00 | 0.10 | 0.05 | 74 | 1012.3 |
| 20260508001036 | 10 | 281 | 12.9 | 22.5 | 0.00 | 0.10 | 0.05 | 75 | 1012.1 |
| 20260508000536 | 10 | 281 | 8.0 | 20.9 | 0.00 | 0.10 | 0.05 | 75 | 1012.3 |
| 20260508000039 | 10 | 297 | 11.3 | 20.9 | 0.00 | 0.10 | 0.05 | 74 | 1012.1 |
| 20260507235537 | 10 | 317 | 6.4 | 20.9 | 0.00 | 0.10 | 0.05 | 74 | 1012.1 |
| 20260507235032 | 10 | 331 | 9.7 | 29.0 | 0.00 | 0.10 | 0.05 | 74 | 1012.2 |
| 20260507234531 | 10 | 276 | 14.5 | 29.0 | 0.00 | 0.10 | 0.05 | 73 | 1012.2 |
| 20260507234030 | 11 | 323 | 8.0 | 24.1 | 0.00 | 0.10 | 0.05 | 75 | 1012.2 |
| 20260507233530 | 11 | 329 | 11.3 | 29.0 | 0.00 | 0.10 | 0.05 | 75 | 1012.2 |
| 20260507233035 | 11 | 350 | 16.1 | 29.0 | 0.00 | 0.10 | 0.05 | 74 | 1012.1 |
| 20260507232529 | 11 | 323 | 14.5 | 32.2 | 0.00 | 0.10 | 0.05 | 74 | 1012.1 |
| 20260507232028 | 11 | 292 | 19.3 | 35.4 | 0.00 | 0.10 | 0.05 | 74 | 1012.1 |
| 20260507231530 | 11 | 345 | 20.9 | 38.6 | 0.00 | 0.10 | 0.05 | 74 | 1011.9 |
| 20260507231030 | 11 | 288 | 22.5 | 38.6 | 0.00 | 0.10 | 0.05 | 73 | 1011.7 |
| 20260507230529 | 11 | 326 | 14.5 | 33.8 | 0.00 | 0.10 | 0.05 | 73 | 1011.6 |
| 20260507230028 | 11 | 294 | 14.5 | 32.2 | 0.00 | 0.10 | 0.05 | 73 | 1011.8 |
| 20260507225528 | 11 | 319 | 19.3 | 32.2 | 0.00 | 0.10 | 0.05 | 73 | 1011.7 |
| 20260507225026 | 11 | 313 | 12.9 | 40.2 | 0.00 | 0.10 | 0.05 | 74 | 1011.6 |
| 20260507224528 | 11 | 300 | 19.3 | 40.2 | 0.00 | 0.10 | 0.05 | 74 | 1011.7 |
| 20260507224024 | 11 | 281 | 19.3 | 43.5 | 0.00 | 0.10 | 0.05 | 74 | 1011.6 |
| 20260507223524 | 11 | 329 | 22.5 | 43.5 | 0.00 | 0.10 | 0.05 | 76 | 1011.6 |
| 20260507223024 | 11 | 322 | 19.3 | 37.0 | 0.00 | 0.10 | 0.05 | 78 | 1011.5 |
| 20260507222523 | 11 | 318 | 19.3 | 33.8 | 0.00 | 0.10 | 0.05 | 78 | 1011.3 |
| 20260507222022 | 11 | 318 | 12.9 | 24.1 | 0.00 | 0.10 | 0.05 | 78 | 1011.2 |
| 20260507221526 | 11 | 279 | 9.7 | 32.2 | 0.00 | 0.10 | 0.05 | 78 | 1011.1 |
| 20260507221024 | 11 | 303 | 11.3 | 30.6 | 0.00 | 0.10 | 0.05 | 77 | 1011.0 |
| 20260507220525 | 12 | 324 | 19.3 | 30.6 | 0.00 | 0.10 | 0.05 | 76 | 1011.0 |
| 20260507220021 | 12 | 274 | 17.7 | 32.2 | 0.00 | 0.10 | 0.05 | 76 | 1010.9 |
| 20260507215525 | 12 | 340 | 19.3 | 32.2 | 0.00 | 0.10 | 0.05 | 76 | 1010.8 |
| 20260507215021 | 12 | 309 | 14.5 | 24.1 | 0.00 | 0.10 | 0.05 | 77 | 1010.9 |
| 20260507214521 | 12 | 355 | 3.2 | 22.5 | 0.00 | 0.10 | 0.05 | 79 | 1010.9 |
| 20260507214021 | 11 | 322 | 6.4 | 27.4 | 0.00 | 0.10 | 0.05 | 80 | 1011.0 |
| 20260507213521 | 11 | 315 | 12.9 | 27.4 | 0.00 | 0.10 | 0.05 | 81 | 1011.1 |
| 20260507213020 | 11 | 311 | 11.3 | 32.2 | 0.00 | 0.10 | 0.05 | 82 | 1011.3 |
| 20260507212519 | 11 | 320 | 12.9 | 32.2 | 0.00 | 0.10 | 0.05 | 81 | 1011.2 |
| 20260507212018 | 11 | 321 | 12.9 | 27.4 | 0.00 | 0.10 | 0.05 | 80 | 1011.2 |
| 20260507211519 | 12 | 346 | 14.5 | 35.4 | 0.00 | 0.10 | 0.05 | 80 | 1010.9 |
| 20260507211017 | 12 | 311 | 20.9 | 38.6 | 0.00 | 0.10 | 0.05 | 79 | 1010.9 |
| 20260507210517 | 12 | 348 | 20.9 | 38.6 | 0.00 | 0.10 | 0.05 | 79 | 1010.7 |
| 20260507210016 | 12 | 337 | 19.3 | 30.6 | 0.00 | 0.10 | 0.05 | 79 | 1010.6 |
| 20260507205515 | 12 | 355 | 17.7 | 30.6 | 0.00 | 0.10 | 0.05 | 80 | 1010.3 |
| 20260507205016 | 12 | 318 | 16.1 | 33.8 | 0.00 | 0.10 | 0.05 | 79 | 1010.3 |
| 20260507204514 | 13 | 333 | 19.3 | 33.8 | 0.00 | 0.10 | 0.05 | 79 | 1010.1 |
| 20260507204015 | 13 | 324 | 14.5 | 27.4 | 0.00 | 0.10 | 0.05 | 79 | 1010.1 |
| 20260507203513 | 13 | 347 | 14.5 | 32.2 | 0.00 | 0.10 | 0.05 | 78 | 1009.9 |
| 20260507203016 | 14 | 333 | 11.3 | 32.2 | 0.00 | 0.10 | 0.05 | 78 | 1009.9 |
| 20260507202514 | 14 | 341 | 8.0 | 22.5 | 0.00 | 0.10 | 0.05 | 78 | 1010.0 |
| 20260507202013 | 14 | 302 | 11.3 | 27.4 | 0.00 | 0.10 | 0.05 | 78 | 1009.9 |
| 20260507201513 | 14 | 350 | 16.1 | 35.4 | 0.00 | 0.10 | 0.05 | 78 | 1009.7 |
| 20260507201014 | 14 | 327 | 17.7 | 32.2 | 0.00 | 0.10 | 0.05 | 78 | 1009.8 |
| 20260507200514 | 15 | 325 | 11.3 | 25.7 | 0.00 | 0.10 | 0.05 | 80 | 1009.6 |
| 20260507200013 | 14 | 15 | 11.3 | 32.2 | 0.00 | 0.10 | 0.05 | 81 | 1009.7 |
| 20260507195511 | 14 | 355 | 20.9 | 32.2 | 0.00 | 0.10 | 0.05 | 80 | 1009.7 |
| 20260507195011 | 14 | 9 | 12.9 | 25.7 | 0.00 | 0.10 | 0.05 | 81 | 1009.9 |
| 20260507194511 | 14 | 22 | 17.7 | 32.2 | 0.00 | 0.10 | 0.05 | 81 | 1010.0 |
| 20260507194010 | 14 | 355 | 20.9 | 32.2 | 0.00 | 0.10 | 0.05 | 80 | 1009.9 |
| 20260507193510 | 14 | 326 | 16.1 | 37.0 | 0.00 | 0.10 | 0.05 | 82 | 1009.9 |
| 20260507193010 | 14 | 355 | 20.9 | 37.0 | 0.00 | 0.10 | 0.05 | 82 | 1010.0 |
| 20260507192510 | 14 | 350 | 17.7 | 32.2 | 0.00 | 0.10 | 0.05 | 83 | 1010.1 |
| 20260507192014 | 14 | 339 | 17.7 | 27.4 | 0.00 | 0.10 | 0.05 | 85 | 1010.2 |
| 20260507191510 | 13 | 346 | 17.7 | 27.4 | 0.00 | 0.10 | 0.05 | 84 | 1010.3 |
| 20260507191011 | 13 | 322 | 17.7 | 29.0 | 0.00 | 0.10 | 0.05 | 84 | 1010.2 |
| 20260507190510 | 13 | 329 | 16.1 | 29.0 | 0.00 | 0.10 | 0.05 | 84 | 1010.2 |
| 20260507190010 | 13 | 315 | 17.7 | 25.7 | 0.00 | 0.10 | 0.05 | 85 | 1010.4 |
| 20260507185508 | 13 | 348 | 14.5 | 27.4 | 0.00 | 0.10 | 0.05 | 86 | 1010.5 |
| 20260507185008 | 13 | 320 | 17.7 | 27.4 | 0.00 | 0.10 | 0.05 | 86 | 1010.4 |
| 20260507184512 | 13 | 5 | 16.1 | 25.7 | 0.00 | 0.10 | 0.05 | 86 | 1010.5 |
| 20260507184012 | 13 | 350 | 16.1 | 24.1 | 0.00 | 0.10 | 0.05 | 85 | 1010.6 |
| 20260507183507 | 13 | 9 | 11.3 | 24.1 | 0.00 | 0.10 | 0.05 | 86 | 1010.5 |
| 20260507183007 | 13 | 40 | 11.3 | 19.3 | 0.00 | 0.10 | 0.05 | 87 | 1010.4 |
| 20260507182508 | 13 | 44 | 9.7 | 24.1 | 0.00 | 0.10 | 0.05 | 86 | 1010.2 |
| 20260507182007 | 13 | 18 | 12.9 | 24.1 | 0.00 | 0.10 | 0.05 | 87 | 1010.3 |
| 20260507181506 | 13 | 348 | 12.9 | 22.5 | 0.00 | 0.10 | 0.05 | 88 | 1010.3 |
| 20260507181006 | 12 | 355 | 9.7 | 20.9 | 0.00 | 0.10 | 0.05 | 89 | 1010.5 |
| 20260507180508 | 12 | 13 | 9.7 | 20.9 | 0.00 | 0.10 | 0.05 | 90 | 1010.5 |
| 20260507180011 | 12 | 336 | 11.3 | 19.3 | 0.00 | 0.10 | 0.05 | 89 | 1010.6 |
| 20260507175507 | 12 | 311 | 12.9 | 24.1 | 0.00 | 0.10 | 0.05 | 90 | 1010.7 |
| 20260507175006 | 12 | 13 | 14.5 | 24.1 | 0.00 | 0.10 | 0.05 | 90 | 1010.5 |
| 20260507174505 | 12 | 349 | 9.7 | 19.3 | 0.00 | 0.10 | 0.05 | 92 | 1010.6 |
| 20260507174004 | 11 | 355 | 11.3 | 19.3 | 0.00 | 0.10 | 0.05 | 92 | 1010.6 |
| 20260507173504 | 11 | 344 | 9.7 | 20.9 | 0.00 | 0.10 | 0.05 | 92 | 1010.5 |
| 20260507173005 | 11 | 360 | 11.3 | 20.9 | 0.00 | 0.10 | 0.05 | 93 | 1010.7 |
| 20260507172503 | 11 | 42 | 12.9 | 22.5 | 0.00 | 0.10 | 0.05 | 93 | 1010.6 |
| 20260507172002 | 11 | 5 | 16.1 | 22.5 | 0.00 | 0.10 | 0.05 | 92 | 1010.6 |
| 20260507171502 | 11 | 33 | 12.9 | 20.9 | 0.00 | 0.10 | 0.05 | 92 | 1010.6 |
| 20260507171002 | 11 | 22 | 14.5 | 22.5 | 0.00 | 0.10 | 0.05 | 92 | 1010.6 |
| 20260507170501 | 12 | 28 | 12.9 | 24.1 | 0.00 | 0.10 | 0.05 | 92 | 1010.5 |
| 20260507170001 | 12 | 19 | 12.9 | 24.1 | 0.00 | 0.10 | 0.05 | 91 | 1010.5 |
| 20260507165600 | 12 | 47 | 9.7 | 20.9 | 0.00 | 0.10 | 0.05 | 93 | 1010.6 |
| 20260507165501 | 12 | 5 | 9.7 | 20.9 | 0.00 | 0.10 | 0.05 | 93 | 1010.5 |
| 20260507165100 | 12 | 12 | 8.0 | 22.5 | 0.00 | 0.10 | 0.05 | 92 | 1010.6 |
| 20260507164603 | 12 | 38 | 11.3 | 22.5 | 0.00 | 0.10 | 0.05 | 92 | 1010.7 |
| 20260507164100 | 12 | 17 | 12.9 | 22.5 | 0.00 | 0.10 | 0.05 | 92 | 1010.6 |
| 20260507163603 | 12 | 21 | 9.7 | 22.5 | 0.00 | 0.10 | 0.05 | 92 | 1010.6 |
| 20260507163100 | 12 | 22 | 9.7 | 22.5 | 0.00 | 0.10 | 0.05 | 93 | 1010.6 |
| 20260507162559 | 12 | 5 | 14.5 | 22.5 | 0.00 | 0.10 | 0.05 | 93 | 1010.6 |
| 20260507162100 | 12 | 18 | 8.0 | 19.3 | 0.00 | 0.10 | 0.05 | 94 | 1010.5 |
| 20260507161601 | 11 | 355 | 9.7 | 22.5 | 0.00 | 0.10 | 0.05 | 94 | 1010.5 |
| 20260507161058 | 11 | 28 | 12.9 | 22.5 | 0.00 | 0.10 | 0.05 | 93 | 1010.7 |
| 20260507160558 | 11 | 20 | 14.5 | 25.7 | 0.00 | 0.10 | 0.05 | 93 | 1010.7 |
| 20260507160107 | 12 | 22 | 14.5 | 25.7 | 0.00 | 0.10 | 0.05 | 93 | 1010.7 |
| 20260507155557 | 12 | 11 | 11.3 | 19.3 | 0.00 | 0.10 | 0.05 | 93 | 1010.8 |
| 20260507155056 | 12 | 15 | 12.9 | 24.1 | 0.00 | 0.10 | 0.05 | 93 | 1010.9 |
| 20260507154556 | 12 | 17 | 16.1 | 24.1 | 0.00 | 0.10 | 0.05 | 92 | 1010.9 |
| 20260507154055 | 12 | 22 | 14.5 | 22.5 | 0.00 | 0.10 | 0.05 | 93 | 1010.7 |
| 20260507153556 | 12 | 22 | 12.9 | 20.9 | 0.00 | 0.10 | 0.05 | 94 | 1010.6 |
| 20260507153059 | 12 | 25 | 11.3 | 19.3 | 0.00 | 0.10 | 0.05 | 94 | 1010.6 |
| 20260507152558 | 12 | 25 | 11.3 | 20.9 | 0.00 | 0.10 | 0.05 | 95 | 1010.5 |
| 20260507152054 | 12 | 27 | 11.3 | 20.9 | 0.00 | 0.10 | 0.05 | 95 | 1010.7 |
| 20260507151552 | 12 | 25 | 9.7 | 20.9 | 0.00 | 0.10 | 0.05 | 95 | 1010.8 |
| 20260507151052 | 12 | 22 | 12.9 | 20.9 | 0.00 | 0.10 | 0.05 | 95 | 1010.8 |
| 20260507150553 | 12 | 17 | 9.7 | 20.9 | 0.00 | 0.10 | 0.05 | 96 | 1010.8 |
| 20260507150052 | 12 | 44 | 12.9 | 20.9 | 0.00 | 0.10 | 0.05 | 96 | 1010.7 |
| 20260507145553 | 12 | 37 | 6.4 | 19.3 | 0.00 | 0.10 | 0.05 | 97 | 1010.7 |
| 20260507145051 | 12 | 25 | 11.3 | 16.1 | 0.00 | 0.10 | 0.05 | 96 | 1010.5 |
| 20260507144550 | 12 | 23 | 11.3 | 17.7 | 0.00 | 0.10 | 0.05 | 96 | 1010.7 |
| 20260507144051 | 12 | 24 | 8.0 | 17.7 | 0.00 | 0.10 | 0.05 | 96 | 1010.6 |
| 20260507143549 | 12 | 19 | 11.3 | 17.7 | 0.00 | 0.10 | 0.05 | 96 | 1010.6 |
| 20260507143047 | 12 | 18 | 9.7 | 17.7 | 0.00 | 0.10 | 0.05 | 96 | 1010.7 |
| 20260507142546 | 12 | 46 | 6.4 | 11.3 | 0.00 | 0.10 | 0.05 | 96 | 1010.8 |
| 20260507142046 | 12 | 49 | 4.8 | 16.1 | 0.00 | 0.10 | 0.05 | 96 | 1010.8 |
| 20260507141546 | 12 | 51 | 8.0 | 17.7 | 0.00 | 0.10 | 0.05 | 96 | 1010.5 |
| 20260507141045 | 12 | 49 | 9.7 | 17.7 | 0.00 | 0.10 | 0.05 | 96 | 1010.4 |
| 20260507140545 | 12 | 41 | 6.4 | 19.3 | 0.00 | 0.10 | 0.05 | 96 | 1010.5 |
| 20260507140059 | 12 | 32 | 9.7 | 19.3 | 0.00 | 0.10 | 0.05 | 96 | 1010.5 |
| 20260507135543 | 12 | 11 | 9.7 | 17.7 | 0.00 | 0.10 | 0.05 | 96 | 1010.5 |
| 20260507135044 | 12 | 28 | 8.0 | 17.7 | 0.00 | 0.10 | 0.05 | 97 | 1010.7 |
| 20260507134643 | 12 | 23 | 6.4 | 12.9 | 0.00 | 0.10 | 0.05 | 97 | 1010.5 |
| 20260507134041 | 12 | 24 | 4.8 | 14.5 | 0.00 | 0.10 | 0.05 | 97 | 1010.6 |
| 20260507133541 | 12 | 23 | 4.8 | 14.5 | 0.00 | 0.10 | 0.05 | 97 | 1010.4 |
| 20260507133040 | 12 | 20 | 9.7 | 14.5 | 0.00 | 0.10 | 0.05 | 97 | 1010.3 |
| 20260507132540 | 12 | 22 | 6.4 | 14.5 | 0.00 | 0.10 | 0.05 | 97 | 1010.3 |
| 20260507132039 | 12 | 30 | 8.0 | 14.5 | 0.00 | 0.10 | 0.05 | 97 | 1010.4 |
| 20260507131545 | 12 | 26 | 4.8 | 12.9 | 0.00 | 0.10 | 0.05 | 98 | 1010.1 |
| 20260507131039 | 12 | 25 | 4.8 | 12.9 | 0.00 | 0.10 | 0.05 | 98 | 1010.3 |
| 20260507130538 | 12 | 29 | 4.8 | 14.5 | 0.00 | 0.10 | 0.05 | 98 | 1010.6 |
| 20260507130038 | 12 | 28 | 9.7 | 14.5 | 0.00 | 0.10 | 0.05 | 98 | 1010.8 |